Find Starlink 35737

NORAD ID: 66219 Int'l Des: 2025-244 Owner: SPXS Country: US Constellation: starlink operational
LEOCIRCULAR

リアルタイム位置

3D地球を読み込み中...

Starlink 35737について

説明を読み込み中...

次回通過

Passes for default location (London). Set your location on the main map for personalized predictions.

高度履歴

Loading altitude history...

軌道要素

1 66219U 25244P 26104.88817297 .00019083 00000-0 65461-3 0 9990
2 66219 53.1572 61.6287 0001384 90.6081 269.5078 15.30207295 27201
Epoch: Apr 14, 2026 • Age: 11 hours

現在のステータス

高度 476.8 km
速度 7.63 km/s
衛星直下点 33.52°N, 118.36°E
打ち上げ日 Oct 28, 2025
運用期間 0.4 years
タイプ internet

技術仕様

分類 Payload
質量 575.00 kg
乾燥質量 530.00 kg
総質量 575.00 kg
長さ 0.30 m
直径 4.10 m
スパン 29.00 m
形状 Box + pan
製造者 SPXS
バスタイプ Starlink V2MO
フェーズステータス In Orbit
所有者/国 SPXS/US

Most Searched